| time (UTC) | temp F | wind direction | speed knots | gust knots | rain 1hr in | rain 24hr in | rain mn in | humidity % | barometer mb |
| 20260510192704 | 90 | 81 | 2.6 | 6.1 | 0.00 | 0.00 | 0.00 | 62 | 1009.2 |
| 20260510192204 | 89 | 218 | 2.6 | 6.1 | 0.00 | 0.00 | 0.00 | 64 | 1009.4 |
| 20260510191704 | 87 | 215 | 1.7 | 6.1 | 0.00 | 0.00 | 0.00 | 67 | 1009.2 |
| 20260510191203 | 87 | 54 | 1.7 | 7.0 | 0.00 | 0.00 | 0.00 | 66 | 1009.3 |
| 20260510190704 | 88 | 107 | 2.6 | 10.4 | 0.00 | 0.00 | 0.00 | 64 | 1009.5 |
| 20260510185704 | 88 | 57 | 1.7 | 5.2 | 0.00 | 0.00 | 0.00 | 65 | 1009.5 |
| 20260510185204 | 88 | 10 | 1.7 | 5.2 | 0.00 | 0.00 | 0.00 | 65 | 1009.5 |
| 20260510184704 | 89 | 212 | 2.6 | 5.2 | 0.00 | 0.00 | 0.00 | 64 | 1009.5 |
| 20260510184204 | 88 | 54 | 2.6 | 5.2 | 0.00 | 0.00 | 0.00 | 65 | 1009.6 |
| 20260510183704 | 89 | 154 | 0.9 | 4.3 | 0.00 | 0.00 | 0.00 | 63 | 1009.7 |
| 20260510183203 | 88 | 268 | 1.7 | 7.0 | 0.00 | 0.00 | 0.00 | 64 | 1009.9 |
| 20260510182204 | 87 | 56 | 2.6 | 7.0 | 0.00 | 0.00 | 0.00 | 68 | 1009.9 |
| 20260510181704 | 87 | 42 | 2.6 | 7.0 | 0.00 | 0.00 | 0.00 | 65 | 1010.0 |
| 20260510181203 | 88 | 121 | 2.6 | 7.0 | 0.00 | 0.00 | 0.00 | 65 | 1010.1 |
| 20260510180703 | 87 | 168 | 1.7 | 7.0 | 0.00 | 0.00 | 0.00 | 65 | 1010.1 |
| 20260510180203 | 87 | 212 | 0.9 | 7.0 | 0.00 | 0.00 | 0.00 | 68 | 1010.2 |
| 20260510175703 | 86 | 30 | 1.7 | 6.1 | 0.00 | 0.00 | 0.00 | 67 | 1010.2 |
| 20260510175204 | 87 | 56 | 2.6 | 6.1 | 0.00 | 0.00 | 0.00 | 67 | 1010.2 |
| 20260510174704 | 87 | 47 | 2.6 | 7.8 | 0.00 | 0.00 | 0.00 | 65 | 1010.2 |
| 20260510174203 | 86 | 67 | 2.6 | 7.8 | 0.00 | 0.00 | 0.00 | 69 | 1010.5 |
| 20260510173703 | 86 | 61 | 3.5 | 7.8 | 0.00 | 0.00 | 0.00 | 67 | 1010.3 |
| 20260510173203 | 87 | 107 | 1.7 | 4.3 | 0.00 | 0.00 | 0.00 | 65 | 1010.3 |
| 20260510172204 | 85 | 125 | 1.7 | 7.8 | 0.00 | 0.00 | 0.00 | 69 | 1010.5 |
| 20260510171704 | 85 | 72 | 2.6 | 7.8 | 0.00 | 0.00 | 0.00 | 68 | 1010.6 |
| 20260510171203 | 85 | 42 | 2.6 | 7.8 | 0.00 | 0.00 | 0.00 | 70 | 1010.5 |
| 20260510170704 | 85 | 71 | 2.6 | 7.0 | 0.00 | 0.00 | 0.00 | 69 | 1010.4 |
| 20260510170204 | 85 | 78 | 3.5 | 7.0 | 0.00 | 0.00 | 0.00 | 68 | 1010.6 |
| 20260510165704 | 84 | 77 | 2.6 | 5.2 | 0.00 | 0.00 | 0.00 | 70 | 1010.6 |
| 20260510165203 | 85 | 67 | 2.6 | 7.0 | 0.00 | 0.00 | 0.00 | 69 | 1010.7 |
| 20260510164704 | 85 | 188 | 1.7 | 7.0 | 0.00 | 0.00 | 0.00 | 69 | 1010.7 |
| 20260510164204 | 84 | 252 | 1.7 | 7.8 | 0.00 | 0.00 | 0.00 | 72 | 1010.7 |
| 20260510163204 | 84 | 60 | 3.5 | 7.8 | 0.00 | 0.00 | 0.00 | 72 | 1010.7 |
| 20260510161703 | 83 | 347 | 1.7 | 7.0 | 0.00 | 0.00 | 0.00 | 75 | 1010.5 |
| 20260510160703 | 83 | 52 | 3.5 | 7.0 | 0.00 | 0.00 | 0.00 | 77 | 1010.7 |
| 20260510160203 | 82 | 50 | 3.5 | 6.1 | 0.00 | 0.00 | 0.00 | 77 | 1010.6 |
| 20260510155704 | 82 | 71 | 1.7 | 6.1 | 0.00 | 0.00 | 0.00 | 77 | 1010.8 |
| 20260510155204 | 83 | 147 | 1.7 | 2.6 | 0.00 | 0.00 | 0.00 | 74 | 1010.8 |
| 20260510154704 | 83 | 81 | 0.9 | 5.2 | 0.00 | 0.00 | 0.00 | 79 | 1010.7 |
| 20260510154204 | 82 | 238 | 0.9 | 5.2 | 0.00 | 0.00 | 0.00 | 81 | 1010.7 |
| 20260510153704 | 81 | 71 | 1.7 | 5.2 | 0.00 | 0.00 | 0.00 | 81 | 1010.6 |
| 20260510153204 | 81 | 217 | 1.7 | 4.3 | 0.00 | 0.00 | 0.00 | 82 | 1010.7 |
| 20260510152703 | 80 | 10 | 1.7 | 4.3 | 0.00 | 0.00 | 0.00 | 83 | 1010.5 |
| 20260510151704 | 80 | 75 | 0.9 | 6.1 | 0.00 | 0.00 | 0.00 | 84 | 1010.6 |
| 20260510151204 | 80 | 75 | 0.9 | 6.1 | 0.00 | 0.00 | 0.00 | 86 | 1010.7 |
| 20260510150203 | 79 | 50 | 1.7 | 6.1 | 0.00 | 0.00 | 0.00 | 86 | 1010.7 |
| 20260510145203 | 78 | 90 | 0.9 | 4.3 | 0.00 | 0.00 | 0.00 | 90 | 1010.7 |
| 20260510144704 | 78 | 79 | 1.7 | 4.3 | 0.00 | 0.00 | 0.00 | 90 | 1010.4 |
| 20260510143704 | 78 | 47 | 0.9 | 4.3 | 0.00 | 0.00 | 0.00 | 90 | 1010.3 |
| 20260510143204 | 78 | 58 | 1.7 | 4.3 | 0.00 | 0.00 | 0.00 | 91 | 1010.5 |
| 20260510142703 | 77 | 151 | 0.9 | 4.3 | 0.00 | 0.00 | 0.00 | 92 | 1010.3 |
| 20260510142203 | 77 | 124 | 0.9 | 4.3 | 0.00 | 0.00 | 0.00 | 92 | 1010.3 |
| 20260510141704 | 77 | 260 | 1.7 | 4.3 | 0.00 | 0.00 | 0.00 | 92 | 1010.1 |
| 20260510141204 | 77 | 296 | 0.9 | 2.6 | 0.00 | 0.00 | 0.00 | 92 | 1010.0 |
| 20260510140704 | 77 | 70 | 0.9 | 2.6 | 0.00 | 0.00 | 0.00 | 90 | 1010.0 |
| 20260510140203 | 78 | 267 | 0.9 | 2.6 | 0.00 | 0.00 | 0.00 | 90 | 1009.8 |
| 20260510135704 | 78 | 44 | 0.0 | 4.3 | 0.00 | 0.00 | 0.00 | 90 | 1009.7 |
| 20260510135204 | 77 | 64 | 0.9 | 4.3 | 0.00 | 0.00 | 0.00 | 91 | 1009.6 |
| 20260510134704 | 76 | 206 | 0.9 | 2.6 | 0.00 | 0.00 | 0.00 | 92 | 1009.6 |
| 20260510134204 | 76 | 311 | 0.9 | 2.6 | 0.00 | 0.00 | 0.00 | 93 | 1009.5 |
| 20260510133703 | 75 | 213 | 0.9 | 2.6 | 0.00 | 0.00 | 0.00 | 93 | 1009.4 |
| 20260510133204 | 75 | 44 | 0.9 | 2.6 | 0.00 | 0.00 | 0.00 | 94 | 1009.4 |
| 20260510132704 | 74 | 46 | 0.0 | 1.7 | 0.00 | 0.00 | 0.00 | 95 | 1009.5 |
| 20260510132204 | 74 | 66 | 0.0 | 1.7 | 0.00 | 0.00 | 0.00 | 95 | 1009.1 |
| 20260510131704 | 73 | 148 | 0.0 | 1.7 | 0.00 | 0.00 | 0.00 | 96 | 1009.1 |
| 20260510131204 | 73 | 79 | 0.9 | 1.7 | 0.00 | 0.00 | 0.00 | 96 | 1009.0 |
| 20260510130204 | 72 | 129 | 0.0 | 1.7 | 0.00 | 0.00 | 0.00 | 96 | 1008.8 |
| 20260510125704 | 71 | 31 | 0.0 | 1.7 | 0.00 | 0.00 | 0.00 | 96 | 1008.7 |
| 20260510125203 | 71 | 42 | 0.0 | 1.7 | 0.00 | 0.00 | 0.00 | 96 | 1008.7 |
| 20260510124703 | 71 | 233 | 0.0 | 1.7 | 0.00 | 0.00 | 0.00 | 96 | 1008.6 |
| 20260510124204 | 70 | 93 | 0.9 | 1.7 | 0.00 | 0.00 | 0.00 | 97 | 1008.5 |
| 20260510123704 | 70 | 115 | 0.9 | 1.7 | 0.00 | 0.00 | 0.00 | 96 | 1008.5 |
| 20260510123204 | 70 | 320 | 0.9 | 1.7 | 0.00 | 0.00 | 0.00 | 96 | 1008.5 |
| 20260510122704 | 69 | 293 | 0.0 | 0.9 | 0.00 | 0.00 | 0.00 | 96 | 1008.5 |
| 20260510122204 | 69 | 96 | 0.0 | 0.9 | 0.00 | 0.00 | 0.00 | 96 | 1008.7 |
| 20260510121704 | 69 | 127 | 0.0 | 1.7 | 0.00 | 0.00 | 0.00 | 96 | 1008.6 |
| 20260510120703 | 68 | 336 | 0.0 | 1.7 | 0.00 | 0.00 | 0.00 | 96 | 1008.6 |
| 20260510120204 | 68 | 273 | 0.0 | 1.7 | 0.00 | 0.00 | 0.00 | 96 | 1008.4 |
| 20260510115203 | 68 | 121 | 0.0 | 1.7 | 0.00 | 0.00 | 0.00 | 96 | 1008.4 |
| 20260510114203 | 69 | 358 | 0.0 | 1.7 | 0.00 | 0.00 | 0.00 | 96 | 1008.1 |
| 20260510113703 | 69 | 27 | 0.9 | 1.7 | 0.00 | 0.01 | 0.00 | 96 | 1008.2 |
| 20260510113204 | 69 | 33 | 0.0 | 0.9 | 0.00 | 0.01 | 0.00 | 96 | 1007.9 |
| 20260510112703 | 69 | 207 | 0.0 | 0.9 | 0.00 | 0.01 | 0.00 | 96 | 1007.8 |
| 20260510112204 | 69 | 147 | 0.0 | 1.7 | 0.00 | 0.02 | 0.00 | 96 | 1007.8 |
| 20260510111703 | 69 | 55 | 0.0 | 1.7 | 0.00 | 0.02 | 0.00 | 96 | 1008.1 |
| 20260510111204 | 69 | 340 | 0.9 | 1.7 | 0.00 | 0.02 | 0.00 | 96 | 1008.0 |
| 20260510110703 | 70 | 66 | 0.9 | 1.7 | 0.00 | 0.02 | 0.00 | 96 | 1008.0 |
| 20260510110203 | 69 | 51 | 0.0 | 0.9 | 0.00 | 0.03 | 0.00 | 95 | 1007.9 |
| 20260510105703 | 69 | 327 | 0.0 | 0.9 | 0.00 | 0.03 | 0.00 | 95 | 1008.0 |
| 20260510104704 | 70 | 49 | 0.0 | 0.0 | 0.00 | 0.03 | 0.00 | 95 | 1007.8 |
| 20260510104204 | 70 | 140 | 0.0 | 0.9 | 0.00 | 0.04 | 0.00 | 95 | 1007.7 |
| 20260510103203 | 69 | 233 | 0.0 | 0.9 | 0.00 | 0.04 | 0.00 | 95 | 1007.9 |
| 20260510102203 | 70 | 261 | 0.0 | 0.0 | 0.00 | 0.04 | 0.00 | 95 | 1007.9 |
| 20260510101704 | 70 | 261 | 0.0 | 0.0 | 0.00 | 0.04 | 0.00 | 95 | 1008.0 |
| 20260510100704 | 70 | 27 | 0.0 | 0.9 | 0.00 | 0.04 | 0.00 | 94 | 1007.8 |
| 20260510095704 | 70 | 340 | 0.9 | 0.9 | 0.00 | 0.04 | 0.00 | 94 | 1007.8 |
| 20260510095204 | 70 | 118 | 0.0 | 0.9 | 0.00 | 0.04 | 0.00 | 94 | 1007.7 |
| 20260510094703 | 70 | 146 | 0.0 | 0.9 | 0.00 | 0.04 | 0.00 | 94 | 1007.8 |
| 20260510094204 | 70 | 153 | 0.0 | 0.9 | 0.00 | 0.04 | 0.00 | 94 | 1007.6 |
| 20260510093704 | 70 | 208 | 0.9 | 0.9 | 0.00 | 0.04 | 0.00 | 94 | 1007.9 |
| 20260510093203 | 69 | 94 | 0.0 | 0.0 | 0.00 | 0.04 | 0.00 | 94 | 1007.9 |
| 20260510092204 | 70 | 331 | 0.0 | 0.9 | 0.00 | 0.04 | 0.00 | 94 | 1007.9 |
| 20260510091703 | 70 | 53 | 0.0 | 0.9 | 0.00 | 0.04 | 0.00 | 94 | 1007.9 |
| 20260510091203 | 70 | 182 | 0.0 | 0.9 | 0.00 | 0.04 | 0.00 | 94 | 1007.7 |
| 20260510090703 | 70 | 130 | 0.0 | 0.9 | 0.00 | 0.04 | 0.00 | 93 | 1008.0 |
| 20260510085703 | 70 | 342 | 0.0 | 0.9 | 0.00 | 0.04 | 0.00 | 93 | 1007.9 |
| 20260510085203 | 70 | 170 | 0.0 | 0.9 | 0.00 | 0.04 | 0.00 | 93 | 1007.9 |
| 20260510084203 | 70 | 47 | 0.9 | 0.9 | 0.00 | 0.04 | 0.00 | 93 | 1007.9 |
| 20260510083704 | 70 | 189 | 0.0 | 2.6 | 0.00 | 0.04 | 0.00 | 93 | 1007.9 |
| 20260510083204 | 70 | 324 | 0.9 | 2.6 | 0.00 | 0.04 | 0.00 | 93 | 1008.0 |
| 20260510082704 | 70 | 28 | 1.7 | 2.6 | 0.00 | 0.04 | 0.00 | 92 | 1008.0 |
| 20260510082203 | 71 | 53 | 0.0 | 0.9 | 0.00 | 0.04 | 0.00 | 92 | 1007.8 |
| 20260510081204 | 70 | 129 | 0.0 | 0.9 | 0.00 | 0.04 | 0.00 | 93 | 1007.8 |
| 20260510080704 | 70 | 85 | 0.0 | 0.9 | 0.00 | 0.04 | 0.00 | 92 | 1007.7 |
| 20260510080203 | 70 | 229 | 0.0 | 0.9 | 0.00 | 0.04 | 0.00 | 92 | 1007.9 |
| 20260510075704 | 70 | 224 | 0.0 | 0.9 | 0.00 | 0.04 | 0.00 | 92 | 1007.7 |
| 20260510075203 | 70 | 162 | 0.0 | 0.9 | 0.00 | 0.04 | 0.00 | 92 | 1007.8 |
| 20260510074703 | 70 | 229 | 0.0 | 0.9 | 0.00 | 0.04 | 0.00 | 92 | 1007.7 |
| 20260510074204 | 70 | 228 | 0.0 | 0.9 | 0.00 | 0.04 | 0.00 | 92 | 1007.8 |
| 20260510073704 | 70 | 77 | 0.0 | 0.9 | 0.00 | 0.04 | 0.00 | 91 | 1007.9 |
| 20260510073203 | 71 | 305 | 0.0 | 0.9 | 0.00 | 0.04 | 0.00 | 91 | 1008.0 |
| 20260510072704 | 71 | 264 | 0.0 | 0.9 | 0.00 | 0.04 | 0.00 | 91 | 1008.1 |
| 20260510072204 | 71 | 226 | 0.0 | 1.7 | 0.00 | 0.04 | 0.00 | 91 | 1008.0 |
| 20260510071704 | 71 | 124 | 0.0 | 1.7 | 0.00 | 0.04 | 0.00 | 91 | 1008.2 |
| 20260510071203 | 71 | 50 | 0.9 | 1.7 | 0.00 | 0.04 | 0.00 | 90 | 1008.2 |
| 20260510070704 | 71 | 123 | 0.9 | 2.6 | 0.00 | 0.04 | 0.00 | 89 | 1008.1 |
| 20260510070203 | 72 | 139 | 0.0 | 4.3 | 0.00 | 0.04 | 0.00 | 89 | 1008.2 |
| 20260510065703 | 72 | 42 | 0.9 | 4.3 | 0.00 | 0.04 | 0.00 | 88 | 1008.0 |
| 20260510065204 | 73 | 50 | 1.7 | 4.3 | 0.00 | 0.04 | 0.00 | 87 | 1008.2 |
| 20260510064704 | 72 | 269 | 0.9 | 1.7 | 0.00 | 0.04 | 0.00 | 88 | 1008.2 |
| 20260510064203 | 73 | 245 | 0.9 | 1.7 | 0.00 | 0.04 | 0.00 | 87 | 1008.3 |
| 20260510063703 | 72 | 94 | 0.0 | 1.7 | 0.00 | 0.04 | 0.00 | 88 | 1008.4 |
| 20260510063204 | 72 | 287 | 0.9 | 1.7 | 0.00 | 0.04 | 0.00 | 89 | 1008.3 |
| 20260510062704 | 72 | 46 | 0.0 | 1.7 | 0.00 | 0.04 | 0.00 | 89 | 1008.2 |
| 20260510061703 | 71 | 122 | 0.9 | 2.6 | 0.00 | 0.04 | 0.00 | 89 | 1008.3 |
| 20260510061203 | 71 | 238 | 0.9 | 2.6 | 0.00 | 0.04 | 0.00 | 89 | 1008.3 |
| 20260510060204 | 71 | 97 | 0.9 | 4.3 | 0.00 | 0.04 | 0.00 | 89 | 1008.3 |
| 20260510055704 | 72 | 52 | 1.7 | 4.3 | 0.00 | 0.04 | 0.00 | 88 | 1008.3 |
| 20260510054704 | 72 | 83 | 0.9 | 2.6 | 0.00 | 0.04 | 0.00 | 87 | 1008.2 |
| 20260510054204 | 72 | 66 | 0.9 | 2.6 | 0.00 | 0.04 | 0.00 | 86 | 1008.3 |
| 20260510053704 | 72 | 54 | 1.7 | 2.6 | 0.00 | 0.04 | 0.00 | 87 | 1008.1 |
| 20260510053204 | 72 | 83 | 1.7 | 1.7 | 0.00 | 0.04 | 0.00 | 87 | 1008.3 |
| 20260510052703 | 72 | 161 | 0.0 | 0.9 | 0.00 | 0.04 | 0.00 | 86 | 1008.2 |
| 20260510052204 | 72 | 274 | 0.0 | 0.9 | 0.00 | 0.04 | 0.00 | 86 | 1008.0 |
| 20260510051704 | 72 | 257 | 0.0 | 0.9 | 0.00 | 0.04 | 0.00 | 85 | 1008.1 |
| 20260510051203 | 73 | 162 | 0.0 | 0.0 | 0.00 | 0.04 | 0.00 | 84 | 1008.0 |
| 20260510050703 | 73 | 149 | 0.0 | 0.9 | 0.00 | 0.04 | 0.00 | 83 | 1008.0 |
| 20260510045703 | 73 | 356 | 0.9 | 1.7 | 0.00 | 0.04 | 0.04 | 83 | 1007.7 |
| 20260510045204 | 74 | 40 | 0.9 | 1.7 | 0.00 | 0.04 | 0.04 | 82 | 1007.7 |
| 20260510044703 | 73 | 162 | 0.0 | 0.9 | 0.00 | 0.04 | 0.04 | 82 | 1007.7 |
| 20260510044204 | 73 | 191 | 0.0 | 0.9 | 0.00 | 0.04 | 0.04 | 83 | 1007.5 |
| 20260510042704 | 73 | 170 | 0.0 | 0.9 | 0.00 | 0.04 | 0.04 | 82 | 1007.7 |
| 20260510042203 | 73 | 172 | 0.0 | 0.9 | 0.00 | 0.04 | 0.04 | 83 | 1007.7 |
| 20260510041203 | 74 | 203 | 0.0 | 2.6 | 0.00 | 0.04 | 0.04 | 82 | 1007.7 |
| 20260510040703 | 74 | 358 | 0.0 | 2.6 | 0.00 | 0.04 | 0.04 | 82 | 1007.6 |
| 20260510040203 | 74 | 39 | 1.7 | 2.6 | 0.00 | 0.04 | 0.04 | 81 | 1007.6 |
| 20260510035704 | 74 | 203 | 0.0 | 1.7 | 0.00 | 0.04 | 0.04 | 81 | 1007.5 |
| 20260510035204 | 74 | 184 | 0.9 | 1.7 | 0.00 | 0.04 | 0.04 | 81 | 1007.4 |
| 20260510034704 | 75 | 257 | 0.0 | 0.9 | 0.00 | 0.04 | 0.04 | 79 | 1007.2 |
| 20260510034203 | 75 | 147 | 0.0 | 0.9 | 0.00 | 0.04 | 0.04 | 79 | 1007.3 |
| 20260510033704 | 75 | 320 | 0.0 | 0.9 | 0.00 | 0.04 | 0.04 | 78 | 1007.3 |
| 20260510033204 | 76 | 330 | 0.0 | 1.7 | 0.00 | 0.04 | 0.04 | 78 | 1007.3 |
| 20260510032703 | 76 | 247 | 0.0 | 1.7 | 0.00 | 0.04 | 0.04 | 77 | 1007.2 |
| 20260510030703 | 76 | 303 | 0.0 | 1.7 | 0.00 | 0.04 | 0.04 | 76 | 1007.0 |
| 20260510025704 | 76 | 152 | 0.0 | 0.9 | 0.00 | 0.04 | 0.04 | 75 | 1006.8 |
| 20260510024704 | 77 | 258 | 0.0 | 1.7 | 0.00 | 0.04 | 0.04 | 75 | 1006.6 |
| 20260510024204 | 77 | 331 | 0.0 | 1.7 | 0.00 | 0.04 | 0.04 | 75 | 1006.7 |
| 20260510023704 | 77 | 45 | 0.9 | 1.7 | 0.00 | 0.04 | 0.04 | 76 | 1006.6 |
| 20260510023204 | 78 | 38 | 0.0 | 1.7 | 0.00 | 0.04 | 0.04 | 74 | 1006.2 |
| 20260510022703 | 78 | 49 | 0.0 | 1.7 | 0.00 | 0.04 | 0.04 | 73 | 1006.0 |
| 20260510022203 | 79 | 29 | 0.9 | 1.7 | 0.00 | 0.04 | 0.04 | 72 | 1006.0 |
| 20260510021703 | 79 | 341 | 0.0 | 1.7 | 0.00 | 0.04 | 0.04 | 72 | 1005.8 |
| 20260510021203 | 79 | 113 | 0.0 | 1.7 | 0.00 | 0.04 | 0.04 | 71 | 1005.8 |
| 20260510020704 | 79 | 49 | 0.0 | 1.7 | 0.00 | 0.04 | 0.04 | 71 | 1005.6 |
| 20260510020204 | 79 | 6 | 0.0 | 2.6 | 0.00 | 0.04 | 0.04 | 70 | 1005.8 |
| 20260510015704 | 80 | 301 | 0.0 | 2.6 | 0.00 | 0.04 | 0.04 | 69 | 1005.4 |
| 20260510015204 | 80 | 69 | 0.9 | 2.6 | 0.00 | 0.04 | 0.04 | 69 | 1005.5 |
| 20260510014704 | 80 | 118 | 0.9 | 2.6 | 0.00 | 0.04 | 0.04 | 69 | 1005.6 |
| 20260510014203 | 80 | 185 | 1.7 | 2.6 | 0.00 | 0.04 | 0.04 | 69 | 1005.3 |
| 20260510013703 | 80 | 164 | 0.9 | 2.6 | 0.00 | 0.04 | 0.04 | 71 | 1005.5 |
| 20260510013204 | 80 | 109 | 0.9 | 1.7 | 0.00 | 0.04 | 0.04 | 71 | 1005.5 |
| 20260510012704 | 80 | 335 | 0.0 | 1.7 | 0.00 | 0.04 | 0.04 | 71 | 1005.3 |
| 20260510012204 | 81 | 340 | 0.9 | 1.7 | 0.00 | 0.04 | 0.04 | 71 | 1005.5 |
| 20260510011204 | 81 | 233 | 0.0 | 1.7 | 0.00 | 0.04 | 0.04 | 70 | 1005.6 |
| 20260510010703 | 82 | 158 | 0.9 | 1.7 | 0.00 | 0.04 | 0.04 | 69 | 1005.7 |
| 20260510010203 | 82 | 195 | 0.9 | 1.7 | 0.00 | 0.04 | 0.04 | 68 | 1005.6 |
| 20260510005204 | 83 | 245 | 0.9 | 4.3 | 0.00 | 0.04 | 0.04 | 67 | 1005.6 |
| 20260510004704 | 83 | 174 | 0.9 | 4.3 | 0.00 | 0.04 | 0.04 | 66 | 1005.7 |
| 20260510004204 | 84 | 184 | 1.7 | 4.3 | 0.00 | 0.04 | 0.04 | 66 | 1005.9 |
| 20260510003704 | 84 | 182 | 1.7 | 5.2 | 0.00 | 0.04 | 0.04 | 65 | 1005.7 |
| 20260510003203 | 84 | 181 | 1.7 | 5.2 | 0.00 | 0.04 | 0.04 | 65 | 1005.5 |
| 20260510001704 | 86 | 179 | 1.7 | 5.2 | 0.00 | 0.04 | 0.04 | 62 | 1005.3 |
| 20260510000703 | 88 | 165 | 0.9 | 1.7 | 0.00 | 0.04 | 0.04 | 55 | 1005.0 |
| 20260510000204 | 89 | 159 | 0.0 | 4.3 | 0.00 | 0.04 | 0.04 | 55 | 1004.9 |
| 20260509235704 | 89 | 159 | 0.0 | 4.3 | 0.00 | 0.04 | 0.04 | 55 | 1004.9 |
| 20260509234704 | 89 | 156 | 0.9 | 2.6 | 0.00 | 0.04 | 0.04 | 56 | 1004.9 |
| 20260509233704 | 88 | 134 | 0.0 | 1.7 | 0.00 | 0.04 | 0.04 | 57 | 1004.8 |
| 20260509232704 | 88 | 144 | 0.0 | 0.9 | 0.00 | 0.04 | 0.04 | 56 | 1004.8 |
| 20260509231704 | 89 | 145 | 0.0 | 1.7 | 0.00 | 0.04 | 0.04 | 54 | 1004.6 |
| 20260509231204 | 90 | 187 | 0.0 | 1.7 | 0.00 | 0.04 | 0.04 | 53 | 1004.9 |
| 20260509230704 | 90 | 156 | 0.0 | 1.7 | 0.00 | 0.04 | 0.04 | 52 | 1004.9 |
| 20260509230203 | 90 | 70 | 0.0 | 1.7 | 0.00 | 0.04 | 0.04 | 52 | 1004.9 |
| 20260509225704 | 91 | 170 | 0.9 | 1.7 | 0.00 | 0.04 | 0.04 | 52 | 1004.7 |
| 20260509224703 | 90 | 155 | 0.0 | 0.9 | 0.00 | 0.04 | 0.04 | 51 | 1004.7 |
| 20260509224204 | 89 | 195 | 0.0 | 0.9 | 0.00 | 0.04 | 0.04 | 53 | 1004.9 |
| 20260509223703 | 89 | 87 | 0.0 | 0.9 | 0.00 | 0.04 | 0.04 | 54 | 1004.8 |
| 20260509223204 | 89 | 204 | 0.0 | 0.9 | 0.00 | 0.04 | 0.04 | 52 | 1005.0 |
| 20260509222704 | 89 | 49 | 0.0 | 0.9 | 0.00 | 0.04 | 0.04 | 51 | 1004.8 |
| 20260509221703 | 89 | 2 | 0.9 | 4.3 | 0.00 | 0.04 | 0.04 | 51 | 1004.7 |
| 20260509221203 | 89 | 54 | 0.9 | 7.0 | 0.00 | 0.04 | 0.04 | 51 | 1004.8 |
| 20260509220704 | 89 | 59 | 2.6 | 7.0 | 0.00 | 0.04 | 0.04 | 52 | 1004.9 |
| 20260509220204 | 89 | 15 | 1.7 | 7.0 | 0.00 | 0.04 | 0.04 | 51 | 1004.8 |
| 20260509215704 | 89 | 339 | 1.7 | 7.0 | 0.00 | 0.04 | 0.04 | 51 | 1004.8 |
| 20260509215204 | 89 | 338 | 1.7 | 4.3 | 0.00 | 0.04 | 0.04 | 52 | 1005.0 |
| 20260509214203 | 89 | 39 | 2.6 | 7.8 | 0.00 | 0.04 | 0.04 | 50 | 1004.9 |
| 20260509213703 | 90 | 17 | 3.5 | 7.8 | 0.00 | 0.04 | 0.04 | 49 | 1004.9 |
| 20260509212703 | 92 | 338 | 1.7 | 4.3 | 0.00 | 0.04 | 0.04 | 48 | 1004.8 |
| 20260509211703 | 91 | 306 | 0.9 | 7.8 | 0.00 | 0.04 | 0.04 | 51 | 1004.9 |
| 20260509211204 | 91 | 316 | 2.6 | 6.1 | 0.00 | 0.04 | 0.04 | 50 | 1004.9 |
| 20260509210704 | 91 | 316 | 0.9 | 2.6 | 0.00 | 0.04 | 0.04 | 51 | 1005.0 |
| 20260509210204 | 90 | 304 | 1.7 | 2.6 | 0.00 | 0.04 | 0.04 | 52 | 1005.0 |
| 20260509205704 | 90 | 325 | 0.9 | 2.6 | 0.00 | 0.04 | 0.04 | 52 | 1005.0 |
| 20260509205203 | 89 | 181 | 1.7 | 4.3 | 0.00 | 0.04 | 0.04 | 52 | 1005.1 |
| 20260509204704 | 89 | 204 | 0.9 | 5.2 | 0.00 | 0.04 | 0.04 | 51 | 1005.2 |
| 20260509204203 | 88 | 264 | 1.7 | 5.2 | 0.00 | 0.04 | 0.04 | 54 | 1005.2 |
| 20260509203704 | 89 | 334 | 1.7 | 5.2 | 0.00 | 0.04 | 0.04 | 52 | 1005.4 |
| 20260509203204 | 89 | 299 | 1.7 | 5.2 | 0.00 | 0.04 | 0.04 | 53 | 1005.3 |
| 20260509202703 | 90 | 223 | 1.7 | 7.8 | 0.00 | 0.04 | 0.04 | 51 | 1005.4 |
| 20260509202203 | 89 | 255 | 1.7 | 7.8 | 0.00 | 0.04 | 0.04 | 54 | 1005.2 |
| 20260509201203 | 88 | 18 | 1.7 | 8.7 | 0.00 | 0.04 | 0.04 | 51 | 1005.3 |
| 20260509200703 | 90 | 345 | 5.2 | 8.7 | 0.00 | 0.04 | 0.04 | 51 | 1005.6 |
| 20260509195704 | 90 | 285 | 1.7 | 6.1 | 0.00 | 0.04 | 0.04 | 52 | 1005.7 |
| 20260509195203 | 89 | 255 | 1.7 | 6.1 | 0.00 | 0.04 | 0.04 | 54 | 1005.8 |
| 20260509194704 | 89 | 320 | 2.6 | 6.1 | 0.00 | 0.04 | 0.04 | 53 | 1005.8 |
| 20260509194204 | 89 | 322 | 0.9 | 2.6 | 0.00 | 0.04 | 0.04 | 53 | 1005.9 |
| 20260509193704 | 89 | 188 | 1.7 | 4.3 | 0.00 | 0.04 | 0.04 | 54 | 1005.8 |
| 20260509193204 | 89 | 24 | 0.9 | 4.3 | 0.00 | 0.04 | 0.04 | 52 | 1006.0 |